Regional Weather Roundup
Issued by NWS Upton, NY

Current Version | Previous Version | Text Only | Print | Product List | Glossary On
Versions: 1 2 3 4 5 6 7 8 9 10 11 12 13 14 15 16 17 18 19 20 21 22 23 24 25 26 27 28 29 30 31 32 33 34 35 36 37 38 39 40 41 42 43 44 45 46 47 48 49 50
000
ASUS41 KOKX 221205
RWROKX

REGIONAL WEATHER ROUNDUP
NATIONAL WEATHER SERVICE NEW YORK NY
800 AM EDT MON SEP 22 2014

NOTE: "FAIR" INDICATES FEW OR NO CLOUDS BELOW 12,000 FEET WITH NO
SIGNIFICANT WEATHER AND/OR OBSTRUCTIONS TO VISIBILITY.

NYZ071-072-176-178-NJZ106-104-221300-
NEW YORK CITY METRO AREA


CITY           SKY/WX    TMP DP  RH WIND       PRES   REMARKS
CENTRAL PARK   SUNNY     64  52  64 W9        29.82R
LAGUARDIA APRT MOSUNNY   65  52  62 W13G21    29.80R
KENNEDY INTL   MOSUNNY   66  52  60 W14G23    29.81R
NEWARK/LIBERTY MOSUNNY   64  52  64 W12       29.80R
BRNX BOT. GARD   N/A     64  52  63 SW3       29.80R
TETERBORO      SUNNY     64  52  64 W10       29.79R
$$

NYZ177-179-078>081-221300-
LONG ISLAND NEW YORK

CITY           SKY/WX    TMP DP  RH WIND       PRES   REMARKS
FARMINGDALE    SUNNY     66  54  65 W8        29.80R
ISLIP          MOSUNNY   65  56  72 W9        29.76R
SHIRLEY        SUNNY     65  56  72 W8        29.78R
WESTHAMPTON    SUNNY     65  57  75 W9        29.78R
MONTAUK POINT    N/A     68  57  68 W12G20    29.75R
$$

NYZ052-065-067-221300-
HUDSON VALLEY

CITY           SKY/WX    TMP DP  RH WIND       PRES   REMARKS
WHITE PLAINS   MOSUNNY   62  53  72 W15       29.78R
NEWBURGH       NOT AVBL
MONTGOMERY     SUNNY     60  53  77 W7        29.78R
POUGHKEEPSIE   SUNNY     62  54  74 SW8       29.76R
ALBANY         MOSUNNY   58  47  66 W20G29    29.77R
$$

NJZ001-105-106-008-010-013-015-019>022-104-221300-
NEW JERSEY

CITY           SKY/WX    TMP DP  RH WIND       PRES   REMARKS
NEWARK/LIBERTY MOSUNNY   64  52  64 W12       29.80R
TETERBORO      SUNNY     64  52  64 W10       29.79R
CALDWELL       SUNNY     62  51  67 VRB6      29.82R
MORRISTOWN     SUNNY     63  54  72 W5        29.82R
SOMERVILLE     SUNNY     62  52  69 NW5       29.81R
LINDEN         FAIR      67  55  64 W7        29.83R
SUSSEX         SUNNY     61  53  75 VRB3      29.82R
ANDOVER          N/A     59  52  77 VRB3      29.83R
TRENTON        SUNNY     62  50  64 W6        29.85R
MILLVILLE      SUNNY     64  51  62 W7        29.89R
ATLANTIC CITY  SUNNY     63  53  70 W9        29.87R
WRIGHTSTOWN    SUNNY     64  52  66 W8        29.84R
TOMS RIVER     SUNNY     63  52  67 W6        29.85R
BELMAR         SUNNY     63  52  67 W10       29.84R
$$

PAZ047>061-062-071-221300-
EASTERN PENNSYLVANIA

CITY           SKY/WX    TMP DP  RH WIND       PRES   REMARKS
PHILADELPHIA   MOSUNNY   64  50  60 W13       29.88R
ALLENTOWN      SUNNY     61  49  64 W6        29.85R
SCRANTON       CLOUDY    58  50  75 W13       29.87R
$$

CTZ002-004>006-009-010-012-RIZ004-006-007-MAZ004-011-015-221300-
SOUTHERN NEW ENGLAND
 IN CT

CITY           SKY/WX    TMP DP  RH WIND       PRES   REMARKS
BRADLEY INTL   MOSUNNY   64  55  72 W3        29.73R
HARTFORD       SUNNY     63  53  70 SW10      29.73R
DANBURY        SUNNY     60  54  80 W9        29.78R
WTRBRY/OXFORD  SUNNY     57  52  82 W9        29.77R
BRIDGEPORT     SUNNY     64  56  75 W10       29.76R
MERIDEN        SUNNY     63  53  70 W6        29.74R
NEW HAVEN      SUNNY     65  57  75 VRB6      29.76R
CHESTER        FAIR      61  55  82 W6        29.76R
GROTON         SUNNY     64  57  78 W9        29.73R
WILLIMANTIC    SUNNY     61  57  87 SW5       29.72R

 IN RI

CITY           SKY/WX    TMP DP  RH WIND       PRES   REMARKS
PROVIDENCE     MOSUNNY   64  58  80 NW7       29.71R
BLOCK ISLAND   SUNNY     66  55  68 W14G23    29.73R
WESTERLY       SUNNY     65  58  78 W5        29.73R

 IN MA

CITY           SKY/WX    TMP DP  RH WIND       PRES   REMARKS
BOSTON         MOSUNNY   66  55  67 W15G22    29.66R
WORCESTER      SUNNY     58  51  78 W14       29.70R
WESTFIELD      MOSUNNY   63  51  65 VRB5      29.71R
PROVINCETOWN   MOSUNNY   64  61  88 W13       29.67R
NANTUCKET      SUNNY     68  66  93 W13       29.70R
$$

ANZ330-335-338-340-345-350-353-355-221300-
COASTAL MARINE OBSERVATIONS


STATION/POSITION TIME  SKY/WX   TEMP    WIND        PRES    VSBY  WAVE
                                AIR SEA DIR/SP/G                  HT/PER
                 (UTC)          (F)     (DEG/KT/KT) (MB)    (MI)  (FT/S)
NY HARB ENTRANCE 1200            67 70  280/ 19/ 21 1009.4          5/ 9
4S FIRE IS       1200               70                N/A           6/11
20S FIRE ISLAND  1200            68 68  290/ 23/ 27 1008.4          7/10
23SW MTP         1200                                 N/A           9/11
HUDSON CANYON    1200            70 70  290/ 17/ 21 1009.2         10/10
EXECUTION ROCKS  1200            66 70  280/ 14/ 19   N/A
WESTERN LI SOUND 1200            66     260/ 16/ 19   N/A           1/ 3
CENTRAL LI SOUND 1100            67 70  270/ 19/ 25   N/A           2/ 4
EASTERN LI SOUND 1100            68 68  270/ 17/ 21   N/A
ROBBINS REEF     1200            64     280/ 15/ 19 1007.9
$$


>>>>>>>>>>>>>>>>>>>>>>>>>>>> KEY <<<<<<<<<<<<<<<<<<<<<<<<<<<
>                                                          <
>     SKY/WX - SKY CONDITION/PRESENT WEATHER               <
>     TMP    - TEMPERATURE IN FAHRENHEIT                   <
>     DP     - DEWPOINT IN FAHRENHEIT                      <
>     RH     - RELATIVE HUMIDITY IN PERCENT                <
>     WIND   - DIRECTION AND SPEED IN MPH                  <
>     PRES   - MEAN SEA LEVEL PRESSURE IN INCHES OF HG     <
>     WCI    - WIND CHILL INDEX                            <
>     VSB    - VISIBILITY IN MILES                         <
>     HX     - HEAT INDEX                                  <
>     TC     - TEMPERATURE IN CELSIUS                      <
>     VRB    - VARIABLE WIND DIRECTION                     <
>                                                          <
>>>>>>>>>>>>>>>>>>>>>>>>>>>> KEY <<<<<<<<<<<<<<<<<<<<<<<<<<<




USA.gov is the U.S. government's official web portal to all federal, state and local government web resources and services.